Location: Unspecified
(0.0000°N, 0.0000°E)
Time: 23:29:28
(UTC+00:00)

Altair 2 - Pass Details

Date: 16 October 2024
Orbit: 523 x 2151 km, 81.3° (Epoch: 12 November)

Event Time Altitude Azimuth Distance (km) Brightness Sun altitude
Rises 03:51:31 0° 359° (N) 5,628 11.3 -28.1°
Reaches altitude 10° 03:54:59 10° 1° (N) 4,655 10.9 -27.3°
Maximum altitude 04:07:25 77° 86° (E) 2,065 9.1 -24.2°
Drops below altitude 10° 04:17:50 10° 170° (S) 3,962 10.9 -21.6°
Sets 04:20:33 0° 171° (S) 4,770 11.3 -21.0°
